Redwood Falls, MN

6:03 PM CDT on August 31, 2016 (GMT -0500)
Redwood Falls Municipal

Weather History for KRWF - September, 2013

Change the Weather History Date:

Saturday, September 7, 2013

  Actual Average Record
Temperature  
Mean Temperature 80 °F -  
Max Temperature 91 °F 78 °F 103 °F (1978)
Min Temperature 68 °F 54 °F 35 °F (1956)
Cooling Degree Days 14    
Growing Degree Days 30 (Base 50)    
Moisture  
Dew Point 68 °F    
Average Humidity 70    
Maximum Humidity 96    
Minimum Humidity 44    
Precipitation  
Precipitation 0.00 in - - ()
Sea Level Pressure  
Sea Level Pressure 29.91 in    
Wind  
Wind Speed 5 mph (North)    
Max Wind Speed 10 mph    
Max Gust Speed 18 mph    
Visibility 9 miles    
Events      
Averages and records for this station are not official NWS values.
T = Trace of Precipitation, MM = Missing Value Source: NWS Daily Summary

Daily Weather History Graph

Daily Weather History Graph

Search for Another Location

Airport or City:

Trip Planner

Search our weather history database for the weather conditions in past years. The results will help you decide how hot, cold, wet, or windy it might be!

Date:

Astronomy

Sep. 07, 2013 Rise Set
Actual Time 6:50 AM CDT 7:45 PM CDT
Civil Twilight 6:20 AM CDT 8:14 PM CDT
Nautical Twilight 5:45 AM CDT 8:50 PM CDT
Astronomical Twilight 5:08 AM CDT 9:27 PM CDT
Moon 9:13 AM CDT (9/7) 8:35 PM CDT (9/7)
Length of Visible Light 13h 54m
Length of Day
12h 55m
Waxing Crescent, 5% of the Moon is Illuminated
Sep 7
Waxing Crescent
Sep 12
First Quarter
Sep 19
Full
Sep 26
Last Quarter
Oct 4
New

Hourly Weather History & Observations

Time (CDT) Temp. Heat Index Dew Point Humidity Pressure Visibility Wind Dir Wind Speed Gust Speed Precip Events Conditions
12:53 AM 75.0 °F - 70.0 °F 84% 29.86 in 10.0 mi SW 5.8 mph - N/A   Clear
1:53 AM 75.9 °F - 71.1 °F 85% 29.86 in 10.0 mi WSW 6.9 mph - N/A   Clear
2:53 AM 75.0 °F - 71.1 °F 87% 29.85 in 10.0 mi West 4.6 mph - N/A   Partly Cloudy
3:53 AM 73.0 °F - 70.0 °F 90% 29.86 in 7.0 mi SW 3.5 mph - N/A   Clear
4:53 AM 71.1 °F - 69.1 °F 93% 29.86 in 6.0 mi WNW 3.5 mph - N/A   Clear
5:53 AM 69.1 °F - 68.0 °F 96% 29.86 in 3.0 mi West 3.5 mph - N/A   Clear
6:53 AM 68.0 °F - 66.9 °F 96% 29.88 in 1.8 mi NW 4.6 mph - N/A   Clear
7:04 AM 68.0 °F - 66.2 °F 94% 29.90 in 3.0 mi NNW 3.5 mph - N/A   Clear
7:53 AM 70.0 °F - 68.0 °F 93% 29.89 in 6.0 mi NNW 5.8 mph - N/A   Clear
8:53 AM 75.0 °F - 69.1 °F 82% 29.90 in 10.0 mi North 5.8 mph - N/A   Clear
9:53 AM 80.1 °F 83.2 °F 70.0 °F 71% 29.91 in 10.0 mi North 4.6 mph - N/A   Clear
10:53 AM 86.0 °F 90.7 °F 70.0 °F 59% 29.91 in 10.0 mi NNE 8.1 mph - N/A   Clear
11:53 AM 86.0 °F 90.7 °F 70.0 °F 59% 29.93 in 10.0 mi ENE 8.1 mph 18.4 mph N/A   Clear
12:53 PM 87.1 °F 92.0 °F 70.0 °F 57% 29.91 in 10.0 mi NE 9.2 mph - N/A   Clear
1:53 PM 91.0 °F 95.2 °F 68.0 °F 47% 29.91 in 10.0 mi NE 10.4 mph 16.1 mph N/A   Clear
2:53 PM 91.9 °F 95.4 °F 66.9 °F 44% 29.91 in 10.0 mi NE 8.1 mph - N/A   Clear
3:53 PM 91.0 °F 94.3 °F 66.9 °F 45% 29.91 in 10.0 mi East 6.9 mph - N/A   Clear
4:53 PM 90.0 °F 92.8 °F 66.9 °F 46% 29.91 in 10.0 mi Variable 5.8 mph - N/A   Clear
5:53 PM 90.0 °F 93.6 °F 68.0 °F 48% 29.92 in 10.0 mi ENE 4.6 mph - N/A   Clear
6:53 PM 87.1 °F 90.6 °F 68.0 °F 53% 29.93 in 10.0 mi Calm Calm - N/A   Clear
7:53 PM 82.0 °F 84.1 °F 66.0 °F 58% 29.94 in 10.0 mi East 3.5 mph - N/A   Clear
8:53 PM 80.1 °F 82.1 °F 66.0 °F 62% 29.94 in 10.0 mi Calm Calm - N/A   Clear
9:53 PM 79.0 °F - 66.0 °F 64% 29.95 in 10.0 mi Calm Calm - N/A   Clear
10:53 PM 78.1 °F - 66.0 °F 66% 29.96 in 10.0 mi NE 5.8 mph - N/A   Clear
11:53 PM 75.0 °F - 66.9 °F 76% 29.97 in 10.0 mi ENE 4.6 mph - N/A   Clear